This is the latest recevied weather packets stored in our database for station/object K4AGR-13. If no packets are shown the sender has not sent any weather packets the latest 10 day(s).
| Time | Temp. | Humidity | Pressure | Rain* | Wind** | Luminosity | Snow |
|---|---|---|---|---|---|---|---|
| 1777667911 | 17.22° C | 89% | 1011.7 hPa | 0 mm | - | 108 W/m² | - |
| 1777667609 | 17.22° C | 89% | 1012.1 hPa | 0 mm | - | 133 W/m² | - |
| 1777667306 | 17.22° C | 89% | 1011.7 hPa | 1.27 mm | - | 149 W/m² | - |
| 1777667003 | 17.22° C | 88% | 1011.9 hPa | 1.27 mm | - | 139 W/m² | - |
| 1777666700 | 17.22° C | 89% | 1011.9 hPa | 0 mm | - | 135 W/m² | - |
| 1777666397 | 17.22° C | 89% | 1011.9 hPa | 0 mm | - | 153 W/m² | - |
| 1777666093 | 17.22° C | 87% | 1012.3 hPa | 0 mm | - | 162 W/m² | - |
| 1777665790 | 17.22° C | 86% | 1012.5 hPa | 0 mm | - | 110 W/m² | - |
| 1777665488 | 17.22° C | 87% | 1012.7 hPa | 0 mm | - | 96 W/m² | - |
| 1777665183 | 17.22° C | 85% | 1012.8 hPa | 0 mm | - | 85 W/m² | - |
| 1777664880 | 17.22° C | 84% | 1012.7 hPa | 0 mm | - | 55 W/m² | - |
| 1777664576 | 17.78° C | 83% | 1012.8 hPa | 0 mm | - | 56 W/m² | - |
| 1777664272 | 17.22° C | 83% | 1012.4 hPa | 0 mm | - | 83 W/m² | - |
| 1777663971 | 17.22° C | 83% | 1012.5 hPa | 0 mm | - | 82 W/m² | - |
| 1777663668 | 17.22° C | 82% | 1012.6 hPa | 0 mm | - | 96 W/m² | - |
| 1777663364 | 17.22° C | 81% | 1012.7 hPa | 0 mm | - | 124 W/m² | - |
| 1777663062 | 17.22° C | 81% | 1012.8 hPa | 0 mm | - | 157 W/m² | - |
| 1777662759 | 17.22° C | 81% | 1012.9 hPa | 0 mm | - | 158 W/m² | - |
| 1777662455 | 17.22° C | 80% | 1013 hPa | 0 mm | - | 105 W/m² | - |
| 1777662151 | 17.22° C | 80% | 1013.1 hPa | 0 mm | - | 117 W/m² | - |
| 1777661847 | 17.22° C | 78% | 1013.3 hPa | 0 mm | - | 155 W/m² | - |
| 1777661543 | 17.78° C | 77% | 1013.4 hPa | 0 mm | - | 156 W/m² | - |
| 1777661239 | 17.78° C | 76% | 1013.4 hPa | 0 mm | - | 170 W/m² | - |
| 1777660935 | 17.78° C | 76% | 1013.3 hPa | 0 mm | - | 186 W/m² | - |
| 1777660631 | 17.78° C | 75% | 1013.4 hPa | 0 mm | - | 213 W/m² | - |
* Rain latest hour (hover to see other rain measurements)
** Current wind speed in m/s (hover to see current wind gust speed)